Terminal Aerodrome Forecast
Issued by NWS Miami, FL

Home | Current Version | Previous Version | Text Only | Print | Product List | Glossary On
Versions: 1 2 3 4 5 6 7 8 9 10 11 12 13 14 15 16 17 18 19 20 21 22 23 24 25 26 27 28 29 30 31 32 33 34 35 36 37 38 39 40 41 42 43 44 45 46 47 48 49 50
000
FTUS42 KMFL 200538
TAFFLL
TAF
KFLL 200538Z 2006/2106 VRB03KT P6SM VCSH SCT025 BKN080 BKN200
     FM201300 22008KT P6SM SHRA SCT035 BKN050 PROB30 2018/2020 4SM
      TSRA BKN035CB
     FM202000 28006KT P6SM SHRA SCT025 BKN060 PROB30 2020/2024 4SM
      TSRA BKN035CB
     FM210200 VRB03KT P6SM SCT025 BKN080=

USA.gov is the U.S. government's official web portal to all federal, state and local government web resources and services.